Flag for India Weather past 2 weeks in Nagercoil, Tamil Nadu, India

Now
79 °F

Rain. More clouds than sun.


Feels Like: 83 °F
Forecast: 78 / 86 °F
Wind: 9 mph from West

Location: Thiruvananthapuram

Current Time: Jul 28, 2014 at 1:10:39 PM

Latest Report: Jul 28, 2014 at 9:40 AM


Visibility: 1 mi

Pressure: 29.86 "Hg

Humidity: 94%

Dew point: 77 °F

Location of NagercoilLocation

Historic Weather in Nagercoil — Graph

°F

Nagercoil temperature yesterday

Maximum temperature yesterday: 86 °F (at 12:40 PM)
Minimum temperature yesterday: 77 °F (at 1:40 AM)
Average temperature yesterday: 80 °F

Past Weeks' High & Low Weather Summary

 TemperatureHumidityPressure
High90 °F (Jul 24, 1:40 PM)100% (Jul 16, 3:40 AM)29.92 "Hg (Jul 16, 3:40 AM)
Low75 °F (Jul 16, 3:40 AM)63% (Jul 25, 2:40 PM)29.71 "Hg (Jul 15, 3:40 PM)
Average81 °F82%29.81 "Hg
* Reported Jul 13 12:40 PM — Jul 28 9:40 AM, Nagercoil, Weather by CustomWeather, © 2014

Note: Actual official high and low records may vary slightly from our data, if they occured in-between our weather recording intervals... More about our weather records

Advertising

Nagercoil weather history for previous 24 hours

 ConditionsComfort  
Time TempWeatherWind HumidityBarometerVisibility
9:40 AM
Jul 28
79 °FRain. More clouds than sun.9 mph94%29.86 "Hg1 mi
7:40 AM77 °FBroken clouds.7 mph79%29.86 "Hg1 mi
4:40 AM77 °FPartly cloudy.3 mph79%29.80 "Hg1 mi
3:40 AM77 °FDrizzle. Overcast.3 mph79%29.80 "Hg1 mi
2:40 AM79 °FPartly cloudy.3 mph74%29.80 "Hg2 mi
1:40 AM79 °FPartly cloudy.3 mph74%29.83 "Hg2 mi
12:40 AM79 °FPartly cloudy.3 mph74%29.86 "Hg2 mi
11:40 PM
Jul 27
79 °FPassing clouds.7 mph74%29.89 "Hg2 mi
10:40 PM79 °FPassing clouds.6 mph74%29.89 "Hg2 mi
9:40 PM79 °FPassing clouds.6 mph79%29.89 "Hg2 mi
8:40 PM79 °FPassing clouds.7 mph79%29.89 "Hg2 mi
7:40 PM79 °FPassing clouds.7 mph79%29.86 "Hg2 mi
6:40 PM81 °FScattered clouds.7 mph79%29.83 "Hg2 mi
5:40 PM81 °FPartly sunny.9 mph79%29.83 "Hg2 mi
4:40 PM81 °FBroken clouds.8 mph84%29.83 "Hg2 mi
3:40 PM82 °FBroken clouds.8 mph84%29.83 "Hg2 mi
2:40 PM84 °FPartly sunny.8 mph74%29.83 "Hg3 mi
1:40 PM86 °FPartly sunny.9 mph75%29.83 "Hg3 mi
Weather by CustomWeather, © 2014

See weather overviewHow to use our weather pages